Location: Allaines
(49.9632°N, 2.9458°E)
Time: 05:21:51
(UTC+00:00)

X-37B - Pass Details

Date: 26 June 2021
Orbit: 383 x 392 km, 45.0° (Epoch: 01 July)

Event Time Altitude Azimuth Distance (km) Brightness Sun altitude
Rises 22:23:02 0° 260° (W) 2,256 4.6 -14.1°
Reaches altitude 10° 22:25:13 10° 250° (WSW) 1,402 3.4 -14.3°
Maximum altitude 22:28:04 32° 185° (S) 684 1.3 -14.4°
Enters shadow 22:28:10 32° 181° (S) 685 1.3 -14.4°
